This demonstration page uses our WeatherBlox Daily Observations layout. Learn more.

Left ArrowRight Arrow

36.19886, -115.1175

Hourly Observations for October 3, 2022

Temp ( °F °C ) Dew Point ( °F °C ) Humidity (%) Winds ( mph kmh ) Pressure ( in mb ) Visibility ( mi km ) Precip ( " mm )
12:53 am 00:53 Clear 78 25.6 44 6.7 30 30 Calm 29.90 1012 10 16 0.00 0.00
1:53 am 01:53 Clear 77 25 43 6.1 30 30 N 5 7 29.90 1013 10 16 0.00 0.00
2:53 am 02:53 Clear 74 23.3 42 5.6 32 32 Calm 29.91 1013 10 16 0.00 0.00
3:53 am 03:53 Clear 73 22.8 45 7.2 37 37 WNW 5 7 29.91 1013 10 16 0.00 0.00
4:53 am 04:53 Clear 74 23.3 43 6.1 33 33 NNW 5 7 29.92 1013 10 16 0.00 0.00
5:53 am 05:53 Clear 71 21.7 45 7.2 39 39 W 7 11 29.94 1014 10 16 0.00 0.00
6:53 am 06:53 Sunny 70 21.1 43 6.1 38 38 WNW 5 7 29.96 1015 10 16 0.00 0.00
7:53 am 07:53 Sunny 76 24.4 43 6.1 31 31 WNW 5 7 29.98 1015 10 16 0.00 0.00
8:53 am 08:53 Sunny 82 27.8 45 7.2 27 27 Calm 29.99 1016 10 16 0.00 0.00
9:53 am 09:53 Sunny 84 28.9 50 10 31 31 SE 6 9 30.00 1016 10 16 0.00 0.00
10:53 am 10:53 Sunny 87 30.6 50 10 28 28 E 14 22 29.98 1015 10 16 0.00 0.00
11:53 am 11:53 Sunny 88 31.1 50 10 27 27 E 8 13 29.97 1015 10 16 0.00 0.00
12:53 pm 12:53 Sunny 91 32.8 50 10 25 25 E 9 15 29.94 1014 10 16 0.00 0.00
1:53 pm 13:53 Sunny 90 32.2 48 8.9 24 24 VRB 6 9 29.92 1013 10 16 0.00 0.00
2:53 pm 14:53 Sunny 91 32.8 46 7.8 21 21 Calm 29.91 1013 10 16 0.00 0.00
3:53 pm 15:53 Sunny 92 33.3 47 8.3 21 21 NNE 5 7 29.90 1013 10 16 0.00 0.00
4:53 pm 16:53 Sunny 92 33.3 48 8.9 22 22 Calm 29.90 1012 10 16 0.00 0.00
5:53 pm 17:53 Sunny 90 32.2 50 10 26 26 ESE 6 9 29.91 1013 10 16 0.00 0.00
6:53 pm 18:53 Clear 88 31.1 49 9.4 26 26 SSE 3 6 29.92 1013 10 16 0.00 0.00
7:53 pm 19:53 Clear 87 30.6 47 8.3 25 25 ESE 6 9 29.93 1014 10 16 0.00 0.00
8:53 pm 20:53 Clear 83 28.3 52 11.1 34 34 SE 6 9 29.95 1014 10 16 0.00 0.00
9:53 pm 21:53 Clear 84 28.9 52 11.1 33 33 NNE 3 6 29.95 1014 10 16 0.00 0.00
10:53 pm 22:53 Clear 82 27.8 51 10.6 34 34 NE 6 9 29.95 1014 10 16 0.00 0.00
11:53 pm 23:53 Clear 80 26.7 50 10 35 35 ENE 8 13 29.95 1014 10 16 0.00 0.00

Powered by AerisWeather